Weather History for Middletown, PA

Change the Weather History Date:

Thursday, September 19, 2013

  Actual Average Record
Temperature  
Mean Temperature 61 °F 65 °F  
Max Temperature 77 °F 74 °F 92 °F (1983)
Min Temperature 45 °F 55 °F 37 °F (1943)
Degree Days  
Heating Degree Days 4 3  
Month to date heating degree days 40 21  
Since 1 July heating degree days 40 23  
Cooling Degree Days 0 2  
Month to date cooling degree days 103 81  
Year to date cooling degree days 1055 977  
Growing Degree Days 10 (Base 50)    
Moisture  
Dew Point 51 °F    
Average Humidity 70    
Maximum Humidity 93    
Minimum Humidity 46    
Precipitation  
Precipitation 0.00 in 0.15 in 3.18 in (2000)
Month to date precipitation 0.38 2.50  
Year to date precipitation 24.65 29.44  
Sea Level Pressure  
Sea Level Pressure 30.14 in    
Wind  
Wind Speed 2 mph (ESE)    
Max Wind Speed 8 mph    
Max Gust Speed 13 mph    
Visibility 10 miles    
Events      
T = Trace of Precipitation, MM = Missing Value Source: NWS Daily Summary

Daily Weather History Graph

Daily Weather History Graph

Search for Another Location

Airport:

Trip Planner

Search our weather history database for the weather conditions in past years. The results will help you decide how hot, cold, wet, or windy it might be!

Date:

Astronomy

Sep. 19, 2013 Rise Set
Actual Time 6:51 AM EDT 7:08 PM EDT
Civil Twilight 6:24 AM EDT 7:35 PM EDT
Nautical Twilight 5:52 AM EDT 8:07 PM EDT
Astronomical Twilight 5:20 AM EDT 8:40 PM EDT
Moon 7:05 PM EDT (9/19) 6:58 AM EDT (9/19)
Length of Visible Light 13h 11m
Length of Day
12h 16m
Full, 100% of the Moon is Illuminated
Sep 19
Full
Sep 26
Last Quarter
Oct 4
New
Oct 11
First Quarter
Oct 18
Full

Hourly Weather History & Observations

Time (EDT) Temp. Windchill Dew Point Humidity Pressure Visibility Wind Dir Wind Speed Gust Speed Precip Events Conditions
12:56 AM 51.1 °F - 44.1 °F 77% 30.20 in 10.0 mi Calm Calm - N/A   Clear
1:56 AM 50.0 °F - 45.0 °F 83% 30.20 in 10.0 mi ENE 3.5 mph - N/A   Clear
2:56 AM 48.9 °F - 44.1 °F 83% 30.19 in 10.0 mi East 3.5 mph - N/A   Clear
3:56 AM 46.0 °F 43.9 °F 42.1 °F 86% 30.19 in 10.0 mi East 4.6 mph - N/A   Clear
4:56 AM 46.9 °F - 44.1 °F 90% 30.18 in 10.0 mi ENE 3.5 mph - N/A   Clear
5:56 AM 46.9 °F - 43.0 °F 86% 30.19 in 10.0 mi Calm Calm - N/A   Partly Cloudy
6:56 AM 46.0 °F - 43.0 °F 89% 30.19 in 10.0 mi Calm Calm - N/A   Clear
7:56 AM 48.9 °F - 45.0 °F 86% 30.19 in 10.0 mi Calm Calm - N/A   Clear
8:56 AM 53.1 °F - 46.9 °F 80% 30.19 in 8.0 mi East 3.5 mph - N/A   Clear
9:56 AM 59.0 °F - 50.0 °F 72% 30.20 in 10.0 mi Calm Calm - N/A   Clear
10:56 AM 63.0 °F - 51.1 °F 65% 30.19 in 10.0 mi Calm Calm - N/A   Clear
11:56 AM 66.9 °F - 53.1 °F 61% 30.18 in 10.0 mi Calm Calm - N/A   Clear
12:56 PM 71.1 °F - 53.1 °F 53% 30.15 in 10.0 mi Calm Calm - N/A   Clear
1:56 PM 73.0 °F - 54.0 °F 51% 30.12 in 10.0 mi Calm Calm - N/A   Partly Cloudy
2:56 PM 75.9 °F - 53.1 °F 45% 30.09 in 10.0 mi SE 4.6 mph - N/A   Scattered Clouds
3:56 PM 75.9 °F - 54.0 °F 46% 30.08 in 10.0 mi SE 3.5 mph - N/A   Scattered Clouds
4:56 PM 73.9 °F - 57.0 °F 55% 30.07 in 10.0 mi Calm Calm - N/A   Scattered Clouds
5:56 PM 73.0 °F - 59.0 °F 61% 30.07 in 10.0 mi Calm Calm - N/A   Mostly Cloudy
6:56 PM 68.0 °F - 60.1 °F 76% 30.08 in 10.0 mi Calm Calm - N/A   Scattered Clouds
7:56 PM 64.9 °F - 57.9 °F 78% 30.09 in 10.0 mi SE 5.8 mph - N/A   Scattered Clouds
8:56 PM 62.1 °F - 55.9 °F 80% 30.09 in 10.0 mi SE 5.8 mph - N/A   Scattered Clouds
9:56 PM 62.1 °F - 57.0 °F 84% 30.09 in 10.0 mi ESE 5.8 mph - N/A   Partly Cloudy
10:56 PM 62.1 °F - 57.0 °F 84% 30.08 in 10.0 mi ESE 5.8 mph - N/A   Partly Cloudy
11:56 PM 61.0 °F - 55.9 °F 83% 30.08 in 10.0 mi East 3.5 mph - N/A   Partly Cloudy